#timestamp,LO_Frequency,Hit,StdDev 
1617930015.5,286047001.6,P
1617930035.3,286046999.9,N
1617930055.2,286047000.1,N
1617930075.0,286047004.3,Y
1617930075.9,286047004.3,P
1617930095.8,286047001.7,N
1617930115.6,286047002.4,N
1617930135.4,286046999.9,N
1617930155.3,286046998.9,N
1617930175.1,286047001.1,N
1617930195.9,286047000.5,N
1617930215.7,286047000.4,N
1617930235.5,286047001.0,N
1617930255.4,286046998.1,N
1617930275.2,286047002.8,N
1617930295.0,286047002.3,N
1617930295.9,286047002.3,N
1617930315.8,286047002.3,N
1617930335.6,286047000.4,N
1617930355.5,286046998.4,N
1617930375.3,286047001.1,N
1617930395.1,286046998.6,N
1617930415.9,286047002.8,N
1617930435.7,286047002.6,N
1617930455.5,286047001.9,N
1617930475.4,286047004.4,N
1617930495.2,286047001.7,N
1617930515.0,286046999.7,N
1617930516.0,286046999.7,N
1617930535.8,286047000.8,N
1617930555.6,286047001.0,N
1617930575.5,286046998.1,N
1617930595.3,286047002.7,N
1617930615.1,286047000.1,N
1617930635.9,286047002.1,N
1617930655.7,286047001.5,N
1617930675.6,286047000.0,N
1617930695.4,286047002.3,N
1617930715.2,286047002.0,N
1617930735.1,286047002.3,N
1617930736.0,286047002.3,N
1617930757.6,286046999.8,N
1617930775.7,286047002.7,N
1617930795.5,286047002.7,N
1617930815.3,286047000.7,N
1617930835.2,286047001.1,N
1617930855.0,286046999.5,N
1617930855.9,286046999.5,N
1617930875.7,286046998.5,N
1617930895.6,286046998.8,N
1617930915.4,286046999.2,N
1617930935.3,286046998.6,N
1617930955.1,286046998.2,N
1617930956.0,286046998.2,N
1617930975.8,286047000.4,N
1617930995.7,286047000.6,N
1617931015.5,286047002.4,N
1617931035.3,286047001.8,N
1617931055.2,286047003.6,N
1617931075.0,286047002.5,N
1617931075.9,286047002.5,N
1617931095.8,286047001.9,N
1617931115.6,286047000.2,N
1617931135.4,286047000.7,N
1617931155.3,286046999.7,N
1617931175.1,286047002.8,N
1617931195.9,286046998.2,N
1617931215.7,286046998.4,N
1617931235.5,286047000.9,N
1617931255.4,286047002.3,N
1617931275.2,286047000.6,N
1617931295.0,286047000.9,N
1617931295.9,286047000.9,N
1617931315.8,286047001.7,N
1617931335.6,286047003.6,N
1617931355.5,286047003.2,N
1617931375.3,286047001.3,N
1617931395.1,286047001.4,N
1617931415.9,286047004.4,N
1617931435.7,286047000.1,N
1617931455.5,286047002.6,N
1617931475.4,286047001.0,N
1617931495.2,286047000.1,N
1617931515.1,286047002.2,N
1617931516.0,286047002.2,N
1617931535.8,286047002.3,N
1617931555.6,286047001.3,N
1617931575.5,286047001.9,N
1617931595.3,286047002.0,N
1617931615.1,286047002.7,N
1617931635.9,286047004.1,N
1617931655.7,286047004.4,Y
1617931675.6,286047000.3,P
1617931695.4,286047000.2,N
1617931715.2,286047000.4,N
1617931735.1,286047000.6,N
1617931736.0,286047000.6,N
1617931755.8,286046998.2,Y
1617931775.7,286046999.1,P
1617931795.5,286046998.7,N
1617931815.3,286046999.2,N
1617931835.2,286046997.0,Y
1617931855.9,286046997.3,P
1617931875.7,286046996.9,N
1617931895.6,286046997.7,N
1617931915.4,286046999.1,N
1617931935.3,286046996.6,Y
1617931955.1,286046999.2,P
1617931956.0,286046999.2,N
1617931975.8,286046999.0,N
1617931995.7,286046999.6,N
1617932015.5,286046999.3,N
1617932035.3,286046998.5,Y
1617932055.2,286046999.8,P
1617932075.0,286047000.0,N
1617932075.9,286047000.0,N
1617932095.8,286047002.6,Y
1617932115.6,286047002.1,P
1617932135.4,286047002.3,N
1617932155.3,286047002.7,N
1617932175.1,286047001.2,N
1617932195.9,286047001.2,N
1617932215.7,286046998.4,N
1617932235.5,286046998.7,N
1617932255.4,286047000.7,N
1617932275.2,286047002.6,N
1617932295.0,286047000.4,N
1617932295.9,286047000.4,N
1617932315.8,286047000.0,N
1617932335.6,286047000.5,N
1617932355.5,286047000.5,N
1617932375.3,286046999.8,N
1617932395.1,286047000.2,N
1617932415.9,286047002.8,N
1617932435.7,286047001.1,N
1617932455.5,286046998.5,N
1617932475.4,286046996.8,N
1617932495.2,286046998.5,N
1617932515.1,286046998.3,N
1617932516.0,286046998.3,N
1617932535.8,286046998.7,N
1617932555.6,286046999.0,N
1617932575.5,286047000.5,N
1617932595.3,286047000.0,N
1617932615.2,286047001.0,N
1617932635.0,286047000.2,N
1617932635.9,286047000.2,N
1617932655.8,286047002.6,N
1617932675.6,286046999.9,N
1617932695.4,286047000.2,N
1617932715.3,286047000.5,N
1617932735.1,286047000.3,N
1617932755.9,286047000.4,N
1617932775.7,286047002.8,N
1617932795.5,286047000.2,N
1617932815.4,286046999.9,N
1617932835.2,286047000.5,N
1617932855.1,286046998.1,N
1617932856.0,286046998.1,N
1617932875.8,286046998.6,N
1617932895.7,286046999.4,N
1617932915.6,286046996.7,N
1617932935.4,286046997.4,N
1617932955.2,286046999.3,N
1617932975.1,286046999.0,N
1617932976.0,286046999.0,N
1617932995.8,286047001.0,N
1617933015.6,286047001.2,N
1617933035.5,286046999.3,N
1617933055.3,286046996.8,N
1617933075.2,286046999.4,N
1617933095.9,286046997.4,N
1617933115.7,286046997.7,N
1617933135.6,286046999.2,N
1617933155.4,286047001.0,N
1617933175.2,286047001.0,N
1617933195.1,286046997.0,N
1617933196.0,286046997.0,N
1617933215.8,286046997.9,N
1617933235.7,286046997.9,N
1617933255.5,286046997.8,N
1617933275.3,286046998.9,N
1617933295.2,286046998.6,N
1617933315.0,286046999.4,N
1617933315.9,286046999.4,N
1617933335.7,286046996.7,N
1617933355.6,286046997.4,N
1617933375.4,286046998.0,N
1617933395.3,286046997.9,N
1617933415.1,286046996.6,N
1617933416.0,286046996.6,N
1617933435.8,286046997.6,N
1617933455.7,286046996.0,N
1617933475.5,286046993.7,Y
1617933495.3,286046993.5,P
1617933515.2,286046996.1,N
1617933535.0,286046997.7,N
1617933535.9,286046997.7,N
1617933555.8,286047000.8,N
1617933575.6,286047000.2,N
1617933595.4,286046998.1,N
